Tracking 25710 objects as of 6-Jul-2022
HD Live streaming from Space Station
objects crossing your sky now

FENGYUN 1C DEB

Track FENGYUN 1C DEB now!
10-day predictions


NORAD ID: 30360
Int'l Code: 1999-025ABX
Perigee: 822.5 km
Apogee: 876.1 km
Inclination: 98.9 °
Period: 101.8 minutes
Semi major axis: 7220 km
RCS: 0.0134 m2 (small)
Launch date: May 10, 1999
Source: People's Republic of China (PRC)
Launch site: Taiyaun Space Center, China (TSC)

Note: This is SATELLITE DEBRIS
aabbcc
Your satellite tracking list
Your tracking list is empty




NASA's NSSDC Master Catalog

Two Line Element Set (TLE):
1 30360U 99025ABX 22186.09064576  .00001230  00000-0  65342-3 0  9992
2 30360  98.8605 245.3721 0037085 150.9748 270.5462 14.15037730795919
Source of the keplerian elements: AFSPC